Location: Newark
(33.6439°N, 114.9881°W)
Time: 01:28:20
(UTC+00:00)

Vanguard 1 Rocket - All Passes

Search period start: 20 August 2019 00:00
Search period end: 30 August 2019 00:00
Orbit: 652 x 4224 km, 34.3° (Epoch: 18 August)

Date Brightness Start Highest point End Pass type
(mag) Time Alt. Az. Time Alt. Az. Time Alt. Az.
20 Aug - 09:36:48 10° SW 09:41:00 47° SSE 09:46:12 10° E visible
20 Aug - 12:00:46 10° W 12:05:53 85° N 12:14:49 10° E visible
20 Aug - 14:24:47 10° W 14:32:00 70° SSW 14:46:29 10° ESE daylight
20 Aug - 16:50:04 10° W 16:59:52 36° SSW 17:16:46 10° SSE daylight
20 Aug - 19:24:29 10° SW 19:29:57 12° SW 19:36:11 10° SSW daylight
21 Aug - 08:26:39 10° SSW 08:30:24 25° SSE 08:34:11 10° E night (unlit)
21 Aug - 10:50:15 10° W 10:54:47 88° SSE 11:01:33 10° E visible
21 Aug - 13:14:19 10° W 13:20:18 84° SSW 13:31:46 10° ESE daylight
21 Aug - 15:38:43 10° W 15:47:07 46° SSW 16:02:57 10° SE daylight
21 Aug - 18:07:06 10° WSW 18:16:08 19° SSW 18:28:43 10° S daylight
22 Aug - 07:17:18 10° S 07:19:37 13° SSE 07:21:44 10° ESE night (unlit)
22 Aug - 09:39:39 10° WSW 09:43:58 63° SSE 09:49:13 10° E visible
22 Aug - 12:03:54 10° W 12:08:57 86° N 12:17:40 10° E visible
22 Aug - 14:27:57 10° W 14:34:57 58° SSW 14:48:38 10° SE daylight
22 Aug - 16:53:53 10° W 17:02:50 27° SSW 17:17:10 10° SSE daylight
23 Aug - 08:29:02 10° SW 08:33:19 37° SSE 08:37:31 10° E visible
23 Aug - 10:53:22 10° W 10:57:52 85° N 11:04:28 10° E visible
23 Aug - 13:17:27 10° W 13:23:18 73° SSW 13:34:21 10° ESE daylight
23 Aug - 15:42:10 10° W 15:50:06 36° SSW 16:04:12 10° SSE daylight
23 Aug - 18:13:35 10° SW 18:19:13 13° SSW 18:26:01 10° SSW daylight
24 Aug - 07:18:36 10° SSW 07:22:34 21° SSE 07:25:56 10° ESE night (unlit)
24 Aug - 09:42:38 10° WSW 09:47:01 79° SSE 09:52:13 10° E visible
24 Aug - 12:07:02 10° W 12:12:01 88° SSW 12:20:31 10° E visible
24 Aug - 14:31:12 10° W 14:37:57 47° SSW 14:50:33 10° SE daylight
24 Aug - 16:58:20 10° WSW 17:05:54 20° SSW 17:16:51 10° S daylight
25 Aug - 06:09:03 10° S 06:11:28 12° SSE 06:13:34 10° SE night (unlit)
25 Aug - 08:31:42 10° WSW 08:36:18 51° SSE 08:40:41 10° E visible
25 Aug - 10:56:30 10° W 11:00:59 83° N 11:07:26 10° E visible
25 Aug - 13:20:37 10° W 13:26:19 61° SSW 13:36:47 10° ESE daylight
25 Aug - 15:45:54 10° W 15:53:09 27° SSW 16:05:00 10° SSE daylight
26 Aug - 07:20:39 10° SW 07:25:34 31° SSE 07:29:29 10° E night (unlit)
26 Aug - 09:45:42 10° W 09:50:05 89° NNW 09:55:14 10° E visible
26 Aug - 12:10:10 10° W 12:15:05 78° SSW 12:23:17 10° ESE visible
26 Aug - 14:34:36 10° W 14:40:59 36° SSW 14:52:10 10° SE daylight
26 Aug - 17:04:18 10° SW 17:09:03 13° SSW 17:14:54 10° S daylight
27 Aug - 06:09:46 10° SSW 06:14:31 20° SSE 06:18:09 10° ESE night (unlit)
27 Aug - 08:34:31 10° WSW 08:39:20 69° SSE 08:43:47 10° E night (unlit)
27 Aug - 10:59:37 10° W 11:04:04 87° N 11:10:23 10° E visible
27 Aug - 13:23:50 10° W 13:29:20 47° SSW 13:39:01 10° SE daylight
27 Aug - 15:50:12 10° WSW 15:56:17 19° SSW 16:05:08 10° SSE daylight
28 Aug - 04:59:41 10° S 05:03:06 13° SSE 05:05:54 10° SE visible
28 Aug - 07:23:02 10° SW 07:28:34 44° SSE 07:32:47 10° E night (unlit)
28 Aug - 09:48:47 10° W 09:53:12 83° N 09:58:15 10° E visible
28 Aug - 12:13:18 10° W 12:18:07 64° SSW 12:25:58 10° ESE visible
28 Aug - 14:38:16 10° WSW 14:44:05 26° SSW 14:53:23 10° SSE daylight
29 Aug - 06:11:26 10° SW 06:17:36 30° SSE 06:21:51 10° E night (unlit)
29 Aug - 08:37:28 10° WSW 08:42:24 84° SSE 08:46:51 10° E night (unlit)
29 Aug - 11:02:44 10° W 11:07:10 84° S 11:13:18 10° ESE visible
29 Aug - 13:27:11 10° W 13:32:24 35° SSW 13:40:59 10° SE daylight
29 Aug - 15:56:00 10° SW 15:59:29 12° SSW 16:03:40 10° S daylight
